• In Österreich
  • Länderverzeichnis
  • Für 7 Tage
  • Wassertemperatur
  • Satellitenkarten
  • Wetterkarte
  • News
  • Widgets
  • user-avatar
    Anmelden

    Stündliche Wetter Keszyca

    Heute, 21 April, Samstag

    Zeit Temperatur Niederschläge Wind Luftdruck Luftfeuchtigkeit
    00:00 +17°C° 0 mm 3 m/S 755 mmHg 76%
    01:00 +17°C° 0 mm 2 m/S 755 mmHg 78%
    02:00 +16°C° 0 mm 2 m/S 754 mmHg 80%
    03:00 +16°C° 0 mm 2 m/S 754 mmHg 83%
    04:00 +15°C° 0 mm 2 m/S 754 mmHg 85%
    05:00 +15°C° 0 mm 2 m/S 754 mmHg 81%
    06:00 +16°C° 0 mm 3 m/S 755 mmHg 76%
    07:00 +16°C° 0 mm 3 m/S 755 mmHg 71%
    08:00 +18°C° 0 mm 3 m/S 755 mmHg 65%
    09:00 +19°C° 0 mm 3 m/S 755 mmHg 59%
    10:00 +20°C° 0 mm 4 m/S 755 mmHg 53%
    11:00 +21°C° 0 mm 4 m/S 755 mmHg 50%
    12:00 +21°C° 0 mm 4 m/S 755 mmHg 47%
    13:00 +22°C° 0 mm 5 m/S 755 mmHg 44%
    14:00 +22°C° 0 mm 5 m/S 755 mmHg 44%
    15:00 +21°C° 0 mm 4 m/S 755 mmHg 44%
    16:00 +21°C° 0 mm 4 m/S 755 mmHg 44%
    17:00 +19°C° 0 mm 4 m/S 755 mmHg 49%
    18:00 +17°C° 0 mm 3 m/S 755 mmHg 54%
    19:00 +14°C° 0 mm 3 m/S 755 mmHg 59%
    20:00 +13°C° 0 mm 2 m/S 756 mmHg 62%
    21:00 +12°C° 0 mm 2 m/S 756 mmHg 64%
    22:00 +10°C° 0 mm 2 m/S 756 mmHg 66%
    23:00 +10°C° 0 mm 1 m/S 756 mmHg 68%

    Morgen, 22 April, Sonntag

    Zeit Temperatur Niederschläge Wind Luftdruck Luftfeuchtigkeit
    00:00 +10°C° 0 mm 1 m/S 756 mmHg 69%
    01:00 +9°C° 0 mm 1 m/S 756 mmHg 71%
    02:00 +9°C° 0 mm 1 m/S 756 mmHg 72%
    03:00 +8°C° 0 mm 0 m/S 756 mmHg 74%
    04:00 +7°C° 0 mm 0 m/S 756 mmHg 75%
    05:00 +8°C° 0 mm 0 m/S 756 mmHg 71%
    06:00 +10°C° 0 mm 0 m/S 756 mmHg 67%
    07:00 +11°C° 0 mm 0 m/S 756 mmHg 63%
    08:00 +13°C° 0 mm 0 m/S 756 mmHg 57%
    09:00 +15°C° 0 mm 0 m/S 756 mmHg 51%
    10:00 +17°C° 0 mm 0 m/S 755 mmHg 45%
    11:00 +18°C° 0 mm 0 m/S 755 mmHg 42%
    12:00 +20°C° 0 mm 0 m/S 755 mmHg 39%
    13:00 +21°C° 0 mm 0 m/S 754 mmHg 36%
    14:00 +21°C° 0 mm 0 m/S 754 mmHg 35%
    15:00 +21°C° 0 mm 0 m/S 753 mmHg 35%
    16:00 +21°C° 0 mm 0 m/S 753 mmHg 34%
    17:00 +21°C° 0 mm 1 m/S 753 mmHg 39%
    18:00 +19°C° 0 mm 1 m/S 752 mmHg 45%
    19:00 +17°C° 0 mm 2 m/S 752 mmHg 50%
    20:00 +16°C° 0 mm 2 m/S 752 mmHg 52%
    21:00 +15°C° 0 mm 2 m/S 752 mmHg 54%
    22:00 +13°C° 0 mm 3 m/S 752 mmHg 55%
    23:00 +13°C° 0 mm 3 m/S 752 mmHg 57%

    übermorgen, 23 April, Montag

    Zeit Temperatur Niederschläge Wind Luftdruck Luftfeuchtigkeit
    00:00 +12°C° 0 mm 3 m/S 751 mmHg 59%
    01:00 +12°C° 0 mm 3 m/S 751 mmHg 61%
    02:00 +12°C° 0,1 mm 3 m/S 751 mmHg 63%
    03:00 +12°C° 0,1 mm 3 m/S 750 mmHg 64%
    04:00 +12°C° 0,1 mm 3 m/S 750 mmHg 66%
    05:00 +13°C° 0,1 mm 3 m/S 750 mmHg 69%
    06:00 +14°C° 0,1 mm 3 m/S 750 mmHg 72%
    07:00 +16°C° 0,1 mm 3 m/S 749 mmHg 75%
    08:00 +17°C° 0,4 mm 4 m/S 749 mmHg 74%
    09:00 +19°C° 0,4 mm 4 m/S 749 mmHg 72%
    10:00 +21°C° 0,4 mm 4 m/S 749 mmHg 71%
    11:00 +21°C° 0,6 mm 4 m/S 749 mmHg 68%
    12:00 +21°C° 0,6 mm 5 m/S 749 mmHg 66%
    13:00 +22°C° 0,6 mm 5 m/S 749 mmHg 63%
    14:00 +21°C° 1 mm 5 m/S 749 mmHg 67%
    15:00 +20°C° 1 mm 5 m/S 749 mmHg 71%
    16:00 +19°C° 1 mm 5 m/S 750 mmHg 75%
    17:00 +18°C° 0,2 mm 4 m/S 750 mmHg 78%
    18:00 +16°C° 0,2 mm 3 m/S 750 mmHg 81%
    19:00 +14°C° 0,2 mm 3 m/S 751 mmHg 84%
    20:00 +14°C° 0,1 mm 2 m/S 751 mmHg 85%
    21:00 +13°C° 0,1 mm 2 m/S 752 mmHg 87%
    22:00 +12°C° 0,1 mm 2 m/S 752 mmHg 88%
    23:00 +12°C° 0 mm 2 m/S 752 mmHg 89%

    24 April, Dienstag

    Zeit Temperatur Niederschläge Wind Luftdruck Luftfeuchtigkeit
    00:00 +10°C° 0 mm 2 m/S 752 mmHg 89%
    01:00 +10°C° 0 mm 2 m/S 753 mmHg 90%
    02:00 +9°C° 0 mm 2 m/S 753 mmHg 90%
    03:00 +8°C° 0 mm 2 m/S 753 mmHg 91%
    04:00 +8°C° 0 mm 2 m/S 753 mmHg 92%
    05:00 +9°C° 0 mm 3 m/S 753 mmHg 88%
    06:00 +9°C° 0 mm 3 m/S 753 mmHg 84%
    07:00 +10°C° 0 mm 4 m/S 753 mmHg 80%
    08:00 +12°C° 0 mm 4 m/S 753 mmHg 72%
    09:00 +13°C° 0 mm 4 m/S 753 mmHg 64%
    10:00 +15°C° 0 mm 5 m/S 753 mmHg 56%
    11:00 +16°C° 0 mm 5 m/S 753 mmHg 52%
    12:00 +17°C° 0 mm 5 m/S 752 mmHg 48%
    13:00 +19°C° 0 mm 5 m/S 752 mmHg 45%
    14:00 +17°C° 0,1 mm 5 m/S 752 mmHg 49%
    15:00 +18°C° 0,1 mm 4 m/S 752 mmHg 54%
    16:00 +17°C° 0,1 mm 4 m/S 751 mmHg 58%
    17:00 +17°C° 0 mm 4 m/S 751 mmHg 61%
    18:00 +15°C° 0 mm 4 m/S 751 mmHg 64%
    19:00 +14°C° 0 mm 4 m/S 751 mmHg 66%
    20:00 +13°C° 0 mm 3 m/S 751 mmHg 70%
    21:00 +13°C° 0 mm 3 m/S 751 mmHg 75%
    22:00 +12°C° 0 mm 3 m/S 752 mmHg 79%
    23:00 +12°C° 0 mm 3 m/S 752 mmHg 81%

    25 April, Mittwoch

    Zeit Temperatur Niederschläge Wind Luftdruck Luftfeuchtigkeit
    00:00 +11°C° 0 mm 3 m/S 752 mmHg 83%
    01:00 +12°C° 0 mm 2 m/S 752 mmHg 86%
    02:00 +10°C° 0 mm 2 m/S 752 mmHg 87%
    03:00 +10°C° 0 mm 2 m/S 752 mmHg 88%
    04:00 +10°C° 0 mm 2 m/S 752 mmHg 90%
    05:00 +10°C° 0 mm 2 m/S 752 mmHg 87%
    06:00 +12°C° 0 mm 2 m/S 752 mmHg 85%
    07:00 +12°C° 0 mm 2 m/S 752 mmHg 82%
    08:00 +13°C° 0 mm 1 m/S 752 mmHg 79%
    09:00 +13°C° 0 mm 1 m/S 752 mmHg 76%
    10:00 +14°C° 0 mm 1 m/S 752 mmHg 73%
    11:00 +16°C° 0 mm 1 m/S 751 mmHg 68%
    12:00 +17°C° 0 mm 2 m/S 751 mmHg 63%
    13:00 +19°C° 0 mm 2 m/S 750 mmHg 59%
    14:00 +20°C° 0 mm 3 m/S 749 mmHg 56%
    15:00 +21°C° 0 mm 3 m/S 748 mmHg 54%
    16:00 +22°C° 0 mm 3 m/S 747 mmHg 51%
    17:00 +20°C° 0 mm 3 m/S 746 mmHg 57%
    18:00 +19°C° 0 mm 3 m/S 746 mmHg 62%
    19:00 +18°C° 0 mm 2 m/S 745 mmHg 68%
    20:00 +17°C° 0 mm 3 m/S 745 mmHg 70%
    21:00 +17°C° 0 mm 3 m/S 745 mmHg 71%
    22:00 +16°C° 0 mm 3 m/S 745 mmHg 73%
    23:00 +15°C° 0 mm 4 m/S 745 mmHg 77%

    26 April, Donnerstag

    Zeit Temperatur Niederschläge Wind Luftdruck Luftfeuchtigkeit
    00:00 +14°C° 0 mm 4 m/S 745 mmHg 80%
    01:00 +14°C° 0 mm 4 m/S 745 mmHg 83%
    02:00 +13°C° 0 mm 4 m/S 745 mmHg 84%
    03:00 +12°C° 0 mm 4 m/S 746 mmHg 86%
    04:00 +11°C° 0 mm 4 m/S 746 mmHg 87%
    05:00 +10°C° 0 mm 5 m/S 746 mmHg 83%
    06:00 +10°C° 0 mm 5 m/S 747 mmHg 80%
    07:00 +10°C° 0 mm 6 m/S 747 mmHg 76%
    08:00 +10°C° 0 mm 6 m/S 748 mmHg 74%
    09:00 +12°C° 0 mm 5 m/S 748 mmHg 71%
    10:00 +12°C° 0 mm 5 m/S 748 mmHg 69%
    11:00 +13°C° 0 mm 5 m/S 748 mmHg 64%
    12:00 +14°C° 0 mm 4 m/S 748 mmHg 59%
    13:00 +15°C° 0 mm 4 m/S 748 mmHg 55%
    14:00 +15°C° 0,2 mm 4 m/S 748 mmHg 57%
    15:00 +14°C° 0,2 mm 4 m/S 748 mmHg 60%
    16:00 +14°C° 0,2 mm 5 m/S 748 mmHg 62%
    17:00 +13°C° 0 mm 4 m/S 748 mmHg 63%
    18:00 +12°C° 0 mm 3 m/S 748 mmHg 63%
    19:00 +12°C° 0 mm 3 m/S 748 mmHg 64%
    20:00 +11°C° 0 mm 3 m/S 749 mmHg 65%
    21:00 +10°C° 0 mm 3 m/S 749 mmHg 66%
    22:00 +10°C° 0 mm 3 m/S 750 mmHg 67%
    23:00 +9°C° 0 mm 3 m/S 750 mmHg 71%
    Mehr zeigen